Location: Kerentrech
(47.7567°N, 3.3595°W)
Time: 16:46:16
(UTC+00:00)

STARLINK-1131 - Pass Details

Date: 17 February 2020
Orbit: 553 x 556 km, 53.0° (Epoch: 30 March)

Event Time Altitude Azimuth Distance (km) Brightness Sun altitude
Exits shadow 06:34:31 - 297° (WNW) 1,932 5.8 -7.8°
Reaches altitude 10° 06:34:46 10° 298° (WNW) 1,843 5.7 -7.8°
Maximum altitude 06:38:48 46° 13° (NNE) 752 4.3 -7.1°
Drops below altitude 10° 06:42:51 10° 87° (E) 1,841 7.9 -6.4°
Sets 06:45:10 0° 94° (E) 2,735 9.6 -6.0°
